Location: Strawberry
(45.6646°N, 111.9596°W)
Time: 22:37:23
(UTC+00:00)

X-37B - Pass Details

Date: 25 August 2022
Orbit: 330 x 340 km, 45.0° (Epoch: 02 September)

Event Time Altitude Azimuth Distance (km) Brightness Sun altitude
Rises 04:16:39 0° 265° (W) 2,096 5.0 -18.8°
Reaches altitude 10° 04:18:39 10° 264° (W) 1,262 3.8 -19.1°
Enters shadow 04:20:47 47° 256° (WSW) 451 1.1 -19.4°
